Location: Oakhurst
(33.6448°N, 111.9543°W)
Time: 22:02:41
(UTC+00:00)

Max Valier Satellite - Pass Details

Date: 29 July 2021
Orbit: 486 x 501 km, 97.2° (Epoch: 15 September)

Event Time Altitude Azimuth Distance (km) Brightness Sun altitude
Exits shadow 03:24:05 14° 141° (SE) 1,425 ? -10.7°
Maximum altitude 03:26:49 39° 75° (ENE) 739 ? -11.2°
Drops below altitude 10° 03:30:12 10° 5° (N) 1,678 ? -11.8°
Sets 03:32:22 0° 358° (N) 2,564 ? -12.2°
